STARLINK-4596, 53624

Orbit data source: Space-Track

STARLINK-4596, 53624 is a payload satellite owned by SpaceX/Seattle (US) in LEO that was launched on Sun, 28 Aug 2022 UTC via an FALCON 9 launch vehicle from the Air Force Eastern Test Range (AFETR). Payload-class satellites include a variety of spacecraft equipped with specific instruments for various scientific and technological missions. These include communications satellites like Starlink; space stations such as the ISS; scientific satellites like the Hubble; Earth observation satellites from companies like Planet Labs, Umbra, and HawkEye 360; GPS; miniature CubeSats for education and research; and military/defense satellites.

Loading next visibility...
Identifier
53624, 2022-104AN
Orbit
LEO
Country
Flag of USUS
Related business
Manufacturer
SpaceX/Seattle
Mission
Operational Commercial Communications
Bus & Motor
STARLINK, Unknown motor
Mass
300 kg wet, ~290 kg dry
Launch date (UTC)
2022-08-28 (3 years ago)
Launch vehicle
FALCON 9
Launch site
Air Force Eastern Test Range (AFETR)
Object type
Payload
Rocket body
Debris
Shape & HBR
Box + 1 Pan, 10.1 m
Radar Cross Section
13.562 m², Large (>1 m²)

Expand to show TLE details & history
Last TLE update: 23 hours ago

TLE from 23 hours ago
0 STARLINK-4596
1 53624U 22104AN  25347.14855346 -.00001180  00000-0 -56083-4 0  9994
2 53624  53.2185 262.3796 0001892  87.4826 272.6383 15.08832690182684
Epoch: 2025-12-13T03:33Z
TLE epoch observation values (Epoch: 2025-12-13T03:33:55.018Z)
Latitude
-0.00002°
Longitude
126.82036°
Altitude
540.603 km
Speed
7.593 km/s
True Right ascension
17h 29m 31s
True Declination
0° 00' 00"
Sunlit
Object was in daylight at epoch
Visualization orbit readout
Latitude
Unknown
Longitude
Unknown
Altitude
Unknown
Speed
Unknown
Apparent Right ascension
Unknown
Apparent Declination
Unknown
Sunlit
N/A
Visualization observer readout
Local Sidereal Time
01:32:05
Azimuth
Unknown
Elevation
Unknown
Doppler factor
Unknown
Orbital elements
Apogee altitude
541.319 km
Perigee altitude
538.702 km
Semi-major axis
6,918.147 km
Eccentricity
0.00019
Inclination
53.2185°
RAAN
262.3796°
Arg. of periapsis
87.4826°
True anomaly
272.61664°
Mean anomaly
272.6383°
Eccentric anomaly
272.62747°
Mean motion
3.77189 °/min
Orbital period
95.44 mins
BSTAR
-0.000056083
Loading maneuver chart data...
Computing Atmospheric mass density...
Loading historical data...
Loading historical data...
Loading historical data...
Loading historical data...
Loading historical data...
Loading historical data...
Loading historical data...

Documentation

Showing up to 5 results
|